QPF
0.03 0.02 0.02 0.02 0.01 0.01 0.02 0.03 0.05 0.04 0.05 0.06 0.07 0.10 0.08 0.08 0.06 0.06 0.04 0.05 0.06 0.05 0.06 0.07 0.07 0.05 0.07 0.08 0.06 0.07 0.09 0.09 0.08 0.10 0.13 0.15 0.13 0.12 0.12 0.11 0.09 0.06 0.05
0.03 0.03 0.02 0.01 0.01 0.01 0.01 0.01 0.02 0.03 0.03 0.05 0.07 0.10 0.09 0.08 0.06 0.07 0.06 0.03 0.04 0.05 0.06 0.08 0.08 0.06 0.08 0.08 0.07 0.08 0.09 0.09 0.08 0.09 0.14 0.16 0.16 0.12 0.09 0.10 0.08 0.07 0.07
0.02 0.02 0.03 0.01 0.01 0.01 0.00 0.00 0.01 0.01 0.02 0.05 0.06 0.08 0.09 0.09 0.08 0.07 0.06 0.04 0.02 0.04 0.06 0.06 0.07 0.07 0.08 0.09 0.09 0.08 0.09 0.11 0.09 0.07 0.11 0.14 0.15 0.13 0.11 0.09 0.09 0.08 0.08
0.01 0.01 0.01 0.01 0.01 0.01 0.00 0.00 0.01 0.01 0.02 0.04 0.06 0.08 0.10 0.11 0.10 0.07 0.04 0.04 0.03 0.03 0.04 0.05 0.07 0.09 0.08 0.09 0.08 0.08 0.10 0.11 0.10 0.08 0.07 0.06 0.09 0.11 0.11 0.08 0.06 0.05 0.04
0.01 0.01 0.01 0.01 0.01 0.01 0.01 0.01 0.01 0.01 0.02 0.03 0.04 0.07 0.07 0.08 0.07 0.06 0.05 0.04 0.03 0.02 0.02 0.03 0.06 0.09 0.08 0.08 0.08 0.10 0.10 0.09 0.10 0.10 0.08 0.07 0.10 0.10 0.13 0.12 0.09 0.06 0.05
0.01 0.01 0.01 0.01 0.01 0.01 0.01 0.00 0.01 0.02 0.02 0.02 0.03 0.04 0.05 0.06 0.07 0.08 0.08 0.06 0.05 0.03 0.03 0.04 0.04 0.05 0.06 0.07 0.08 0.09 0.08 0.09 0.10 0.09 0.08 0.08 0.09 0.12 0.14 0.14 0.12 0.11 0.08
0.01 0.01 0.01 0.01 0.01 0.01 0.01 0.01 0.02 0.02 0.02 0.02 0.03 0.03 0.03 0.05 0.06 0.06 0.06 0.05 0.04 0.04 0.05 0.06 0.06 0.06 0.05 0.05 0.07 0.08 0.08 0.10 0.09 0.08 0.09 0.09 0.08 0.09 0.11 0.13 0.12 0.13 0.10
0.01 0.01 0.01 0.01 0.01 0.01 0.01 0.01 0.02 0.02 0.02 0.02 0.02 0.02 0.03 0.03 0.03 0.05 0.05 0.05 0.04 0.04 0.04 0.05 0.06 0.06 0.05 0.06 0.09 0.08 0.09 0.10 0.10 0.09 0.11 0.10 0.08 0.08 0.09 0.11 0.11 0.12 0.13
0.01 0.01 0.01 0.01 0.01 0.01 0.01 0.02 0.02 0.02 0.02 0.02 0.03 0.02 0.01 0.01 0.02 0.04 0.04 0.04 0.04 0.05 0.05 0.05 0.07 0.09 0.08 0.08 0.09 0.09 0.09 0.10 0.10 0.09 0.10 0.09 0.08 0.07 0.07 0.09 0.11 0.12 0.13
0.00 0.00 0.01 0.01 0.01 0.01 0.01 0.02 0.02 0.02 0.01 0.01 0.01 0.01 0.00 0.01 0.02 0.02 0.03 0.03 0.04 0.05 0.05 0.05 0.07 0.09 0.10 0.10 0.10 0.08 0.07 0.08 0.08 0.07 0.07 0.07 0.07 0.08 0.09 0.10 0.14 0.16 0.17
0.01 0.02 0.01 0.01 0.01 0.01 0.01 0.01 0.01 0.01 0.01 0.01 0.01 0.00 0.00 0.01 0.02 0.03 0.02 0.03 0.04 0.05 0.05 0.05 0.06 0.06 0.06 0.08 0.08 0.07 0.07 0.07 0.07 0.07 0.06 0.07 0.08 0.08 0.08 0.08 0.08 0.10 0.12
0.01 0.01 0.01 0.01 0.01 0.01 0.01 0.01 0.00 0.00 0.00 0.00 0.00 0.00 0.01 0.02 0.03 0.02 0.03 0.04 0.04 0.05 0.05 0.05 0.06 0.05 0.05 0.05 0.05 0.05 0.07 0.08 0.08 0.09 0.07 0.07 0.09 0.08 0.06 0.06 0.06 0.07 0.08
0.00 0.01 0.01 0.02 0.01 0.01 0.01 0.01 0.01 0.00 0.00 0.00 0.00 0.01 0.02 0.03 0.03 0.02 0.03 0.03 0.04 0.04 0.03 0.03 0.03 0.04 0.05 0.05 0.05 0.05 0.06 0.06 0.06 0.07 0.05 0.05 0.06 0.06 0.06 0.05 0.06 0.07 0.07
0.00 0.00 0.01 0.01 0.01 0.01 0.01 0.01 0.01 0.01 0.01 0.00 0.01 0.02 0.03 0.04 0.03 0.03 0.02 0.02 0.02 0.02 0.02 0.02 0.03 0.03 0.03 0.03 0.03 0.04 0.05 0.05 0.05 0.05 0.05 0.05 0.04 0.05 0.05 0.04 0.05 0.06 0.06
0.00 0.00 0.00 0.01 0.01 0.01 0.01 0.01 0.01 0.00 0.01 0.01 0.01 0.03 0.03 0.02 0.02 0.02 0.02 0.01 0.01 0.01 0.01 0.02 0.03 0.02 0.01 0.01 0.02 0.02 0.03 0.04 0.04 0.03 0.04 0.04 0.04 0.04 0.04 0.03 0.04 0.05 0.04
0.00 0.00 0.00 0.00 0.01 0.00 0.00 0.01 0.01 0.01 0.01 0.02 0.03 0.03 0.02 0.02 0.02 0.01 0.01 0.01 0.01 0.01 0.03 0.02 0.01 0.01 0.01 0.01 0.01 0.03 0.04 0.04 0.03 0.03 0.03 0.03 0.02 0.02 0.02 0.02 0.03 0.04 0.06
0.00 0.00 0.00 0.00 0.00 0.00 0.01 0.01 0.01 0.02 0.02 0.03 0.04 0.03 0.03 0.03 0.02 0.02 0.02 0.02 0.02 0.02 0.02 0.02 0.02 0.02 0.02 0.02 0.01 0.02 0.03 0.03 0.03 0.03 0.03 0.02 0.02 0.03 0.03 0.03 0.04 0.04 0.05
0.00 0.00 0.01 0.01 0.01 0.01 0.01 0.02 0.03 0.04 0.04 0.04 0.04 0.05 0.04 0.04 0.04 0.04 0.03 0.04 0.03 0.03 0.02 0.03 0.03 0.04 0.04 0.04 0.02 0.01 0.01 0.02 0.02 0.02 0.02 0.03 0.04 0.04 0.05 0.05 0.05 0.05 0.04
0.02 0.01 0.01 0.01 0.01 0.01 0.01 0.01 0.02 0.02 0.03 0.04 0.04 0.04 0.04 0.04 0.03 0.03 0.02 0.03 0.04 0.04 0.03 0.03 0.04 0.04 0.04 0.04 0.03 0.02 0.02 0.02 0.02 0.02 0.02 0.03 0.03 0.03 0.03 0.03 0.03 0.03 0.03
0.04 0.04 0.02 0.01 0.01 0.01 0.01 0.02 0.02 0.02 0.02 0.03 0.03 0.03 0.03 0.03 0.02 0.02 0.03 0.04 0.04 0.04 0.05 0.05 0.04 0.05 0.05 0.05 0.05 0.05 0.05 0.05 0.04 0.05 0.04 0.03 0.03 0.02 0.02 0.03 0.03 0.02 0.02
0.04 0.04 0.04 0.02 0.02 0.02 0.02 0.03 0.03 0.03 0.03 0.04 0.04 0.04 0.03 0.03 0.03 0.04 0.06 0.07 0.08 0.08 0.07 0.06 0.06 0.05 0.04 0.03 0.02 0.02 0.03 0.03 0.03 0.04 0.05 0.04 0.02 0.02 0.02 0.02 0.02 0.03 0.03
0.04 0.03 0.04 0.04 0.05 0.04 0.03 0.04 0.04 0.05 0.05 0.05 0.06 0.06 0.05 0.05 0.05 0.07 0.07 0.09 0.11 0.11 0.10 0.08 0.07 0.06 0.05 0.03 0.02 0.02 0.02 0.02 0.02 0.03 0.03 0.02 0.01 0.01 0.02 0.02 0.02 0.02 0.02
0.05 0.05 0.05 0.05 0.06 0.07 0.06 0.06 0.06 0.07 0.07 0.07 0.07 0.08 0.10 0.12 0.12 0.12 0.09 0.08 0.08 0.08 0.07 0.06 0.07 0.07 0.06 0.04 0.02 0.02 0.02 0.02 0.02 0.02 0.02 0.02 0.02 0.02 0.02 0.02 0.02 0.02 0.02
0.04 0.04 0.06 0.07 0.08 0.08 0.09 0.09 0.08 0.09 0.09 0.10 0.13 0.15 0.14 0.15 0.17 0.20 0.18 0.11 0.07 0.05 0.04 0.03 0.04 0.04 0.04 0.03 0.02 0.01 0.01 0.01 0.01 0.01 0.01 0.01 0.02 0.02 0.02 0.02 0.02 0.02 0.03
0.04 0.04 0.06 0.08 0.09 0.09 0.09 0.09 0.08 0.08 0.10 0.11 0.13 0.20 0.19 0.20 0.20 0.19 0.20 0.15 0.10 0.08 0.04 0.02 0.02 0.02 0.01 0.01 0.01 0.01 0.01 0.01 0.01 0.01 0.01 0.01 0.02 0.02 0.03 0.03 0.03 0.03 0.03
0.05 0.04 0.06 0.07 0.08 0.08 0.08 0.07 0.06 0.06 0.08 0.09 0.11 0.13 0.15 0.17 0.19 0.18 0.18 0.18 0.15 0.13 0.08 0.04 0.03 0.03 0.03 0.03 0.02 0.02 0.02 0.02 0.02 0.01 0.02 0.02 0.02 0.03 0.03 0.03 0.03 0.03 0.03
MSLP
1009.27 1009.95 1010.56 1011.07 1011.48 1011.79 1012.03 1012.25 1012.45 1012.65 1012.84 1013.02 1013.15 1013.22 1013.21 1013.13 1012.99 1012.81 1012.63 1012.46 1012.34 1012.27 1012.26 1012.31 1012.39 1012.50 1012.64 1012.77 1012.91 1013.03 1013.11 1013.14 1013.10 1012.97 1012.74 1012.40 1011.97 1011.48 1010.96 1010.47 1010.05 1009.75 1009.59
1008.59 1009.33 1010.03 1010.64 1011.13 1011.51 1011.81 1012.05 1012.27 1012.49 1012.72 1012.94 1013.13 1013.27 1013.33 1013.29 1013.17 1012.99 1012.78 1012.57 1012.40 1012.29 1012.26 1012.29 1012.40 1012.54 1012.71 1012.89 1013.05 1013.19 1013.28 1013.31 1013.26 1013.13 1012.90 1012.57 1012.16 1011.69 1011.19 1010.70 1010.25 1009.89 1009.63
1007.76 1008.54 1009.32 1010.03 1010.62 1011.09 1011.46 1011.75 1012.01 1012.26 1012.53 1012.81 1013.07 1013.27 1013.40 1013.43 1013.36 1013.20 1012.99 1012.76 1012.56 1012.43 1012.37 1012.40 1012.51 1012.67 1012.85 1013.05 1013.22 1013.35 1013.42 1013.43 1013.37 1013.24 1013.03 1012.74 1012.38 1011.96 1011.51 1011.05 1010.60 1010.20 1009.86
1006.85 1007.66 1008.51 1009.32 1010.03 1010.60 1011.05 1011.41 1011.72 1012.02 1012.33 1012.65 1012.97 1013.25 1013.46 1013.56 1013.55 1013.44 1013.25 1013.03 1012.83 1012.68 1012.61 1012.63 1012.73 1012.88 1013.06 1013.24 1013.38 1013.48 1013.53 1013.50 1013.42 1013.29 1013.10 1012.86 1012.57 1012.23 1011.85 1011.45 1011.03 1010.61 1010.19
1005.96 1006.78 1007.71 1008.62 1009.45 1010.14 1010.68 1011.11 1011.47 1011.81 1012.16 1012.53 1012.90 1013.24 1013.52 1013.70 1013.76 1013.71 1013.57 1013.38 1013.20 1013.05 1012.97 1012.97 1013.04 1013.17 1013.32 1013.45 1013.55 1013.60 1013.59 1013.53 1013.42 1013.28 1013.11 1012.92 1012.71 1012.46 1012.17 1011.83 1011.45 1011.01 1010.54
1005.19 1006.04 1007.04 1008.06 1009.00 1009.79 1010.43 1010.93 1011.34 1011.71 1012.08 1012.47 1012.87 1013.26 1013.60 1013.85 1013.98 1014.00 1013.92 1013.78 1013.62 1013.48 1013.39 1013.38 1013.42 1013.51 1013.61 1013.69 1013.72 1013.71 1013.64 1013.53 1013.39 1013.24 1013.09 1012.95 1012.80 1012.64 1012.43 1012.16 1011.81 1011.37 1010.84
1004.66 1005.54 1006.60 1007.71 1008.75 1009.64 1010.35 1010.91 1011.34 1011.72 1012.09 1012.49 1012.90 1013.32 1013.70 1014.00 1014.20 1014.28 1014.26 1014.17 1014.05 1013.93 1013.84 1013.81 1013.82 1013.87 1013.91 1013.93 1013.91 1013.83 1013.70 1013.54 1013.37 1013.21 1013.07 1012.96 1012.87 1012.77 1012.63 1012.41 1012.09 1011.64 1011.07
1004.44 1005.35 1006.47 1007.65 1008.75 1009.70 1010.47 1011.05 1011.49 1011.86 1012.21 1012.59 1012.99 1013.40 1013.80 1014.13 1014.38 1014.52 1014.56 1014.52 1014.43 1014.34 1014.26 1014.22 1014.21 1014.21 1014.21 1014.18 1014.10 1013.97 1013.80 1013.60 1013.41 1013.23 1013.10 1013.01 1012.95 1012.88 1012.78 1012.60 1012.30 1011.85 1011.26
1004.57 1005.51 1006.66 1007.86 1009.00 1009.97 1010.74 1011.31 1011.74 1012.08 1012.40 1012.73 1013.10 1013.49 1013.88 1014.22 1014.49 1014.67 1014.76 1014.77 1014.72 1014.66 1014.60 1014.56 1014.54 1014.53 1014.50 1014.44 1014.33 1014.17 1013.97 1013.74 1013.53 1013.34 1013.20 1013.11 1013.06 1013.01 1012.92 1012.76 1012.47 1012.03 1011.43
1005.01 1005.97 1007.12 1008.31 1009.43 1010.37 1011.11 1011.65 1012.04 1012.34 1012.61 1012.89 1013.22 1013.57 1013.93 1014.27 1014.54 1014.74 1014.86 1014.91 1014.90 1014.87 1014.84 1014.82 1014.81 1014.80 1014.77 1014.70 1014.58 1014.42 1014.20 1013.97 1013.74 1013.54 1013.39 1013.28 1013.22 1013.16 1013.07 1012.91 1012.64 1012.22 1011.64
1005.73 1006.68 1007.79 1008.92 1009.96 1010.83 1011.50 1011.99 1012.32 1012.58 1012.80 1013.04 1013.31 1013.62 1013.95 1014.26 1014.53 1014.73 1014.87 1014.94 1014.97 1014.98 1014.98 1014.99 1015.01 1015.02 1015.01 1014.96 1014.86 1014.70 1014.50 1014.27 1014.03 1013.82 1013.65 1013.52 1013.43 1013.35 1013.25 1013.09 1012.82 1012.43 1011.90
1006.61 1007.53 1008.55 1009.57 1010.49 1011.26 1011.84 1012.26 1012.55 1012.76 1012.95 1013.16 1013.40 1013.67 1013.96 1014.23 1014.48 1014.67 1014.81 1014.90 1014.95 1014.99 1015.04 1015.09 1015.14 1015.19 1015.21 1015.20 1015.12 1014.99 1014.81 1014.59 1014.35 1014.13 1013.94 1013.79 1013.67 1013.56 1013.44 1013.28 1013.03 1012.68 1012.21
1007.55 1008.40 1009.31 1010.19 1010.97 1011.61 1012.09 1012.45 1012.70 1012.89 1013.07 1013.26 1013.48 1013.72 1013.98 1014.22 1014.43 1014.60 1014.72 1014.81 1014.89 1014.96 1015.03 1015.12 1015.22 1015.31 1015.37 1015.39 1015.35 1015.25 1015.09 1014.88 1014.65 1014.43 1014.22 1014.04 1013.89 1013.76 1013.63 1013.46 1013.24 1012.94 1012.53
1008.45 1009.21 1009.98 1010.70 1011.33 1011.85 1012.25 1012.55 1012.79 1012.99 1013.18 1013.39 1013.60 1013.83 1014.05 1014.24 1014.41 1014.54 1014.64 1014.72 1014.80 1014.88 1014.98 1015.11 1015.24 1015.36 1015.46 1015.51 1015.50 1015.43 1015.29 1015.09 1014.87 1014.64 1014.42 1014.23 1014.06 1013.91 1013.77 1013.61 1013.42 1013.16 1012.82
1009.23 1009.90 1010.53 1011.09 1011.58 1011.99 1012.33 1012.62 1012.87 1013.10 1013.33 1013.56 1013.79 1014.00 1014.19 1014.34 1014.45 1014.53 1014.59 1014.64 1014.70 1014.78 1014.90 1015.04 1015.19 1015.34 1015.47 1015.54 1015.55 1015.49 1015.36 1015.18 1014.97 1014.74 1014.52 1014.31 1014.14 1013.98 1013.84 1013.69 1013.52 1013.29 1013.01
1009.87 1010.44 1010.94 1011.38 1011.76 1012.09 1012.40 1012.70 1012.98 1013.27 1013.55 1013.82 1014.06 1014.25 1014.40 1014.50 1014.55 1014.56 1014.56 1014.56 1014.59 1014.66 1014.77 1014.92 1015.08 1015.24 1015.37 1015.45 1015.47 1015.42 1015.30 1015.12 1014.92 1014.69 1014.47 1014.27 1014.10 1013.95 1013.81 1013.67 1013.50 1013.30 1013.05
1010.35 1010.83 1011.24 1011.58 1011.90 1012.20 1012.51 1012.84 1013.18 1013.53 1013.86 1014.16 1014.41 1014.58 1014.68 1014.71 1014.67 1014.61 1014.54 1014.48 1014.47 1014.51 1014.60 1014.74 1014.90 1015.06 1015.19 1015.27 1015.28 1015.23 1015.10 1014.93 1014.73 1014.51 1014.30 1014.11 1013.94 1013.79 1013.65 1013.51 1013.35 1013.16 1012.91
1010.70 1011.13 1011.47 1011.77 1012.07 1012.37 1012.71 1013.09 1013.49 1013.90 1014.27 1014.59 1014.82 1014.95 1014.98 1014.93 1014.80 1014.65 1014.50 1014.38 1014.32 1014.33 1014.40 1014.53 1014.68 1014.82 1014.94 1015.01 1015.01 1014.94 1014.82 1014.64 1014.44 1014.22 1014.02 1013.83 1013.66 1013.52 1013.38 1013.23 1013.06 1012.84 1012.58
1010.96 1011.37 1011.70 1011.99 1012.30 1012.64 1013.02 1013.45 1013.91 1014.35 1014.74 1015.04 1015.24 1015.31 1015.26 1015.11 1014.90 1014.66 1014.44 1014.27 1014.16 1014.14 1014.20 1014.31 1014.45 1014.58 1014.69 1014.74 1014.72 1014.64 1014.50 1014.31 1014.10 1013.88 1013.67 1013.48 1013.30 1013.14 1012.99 1012.82 1012.62 1012.37 1012.07
1011.19 1011.60 1011.95 1012.27 1012.61 1013.00 1013.43 1013.90 1014.39 1014.84 1015.21 1015.48 1015.62 1015.61 1015.48 1015.24 1014.94 1014.63 1014.35 1014.14 1014.01 1013.97 1014.02 1014.13 1014.26 1014.39 1014.48 1014.52 1014.48 1014.38 1014.21 1014.00 1013.76 1013.52 1013.29 1013.08 1012.88 1012.70 1012.51 1012.30 1012.06 1011.78 1011.43
1011.42 1011.86 1012.24 1012.61 1012.99 1013.42 1013.89 1014.39 1014.87 1015.30 1015.64 1015.85 1015.91 1015.82 1015.60 1015.29 1014.93 1014.57 1014.25 1014.02 1013.89 1013.86 1013.91 1014.03 1014.17 1014.29 1014.38 1014.40 1014.34 1014.21 1014.01 1013.76 1013.49 1013.21 1012.93 1012.68 1012.44 1012.20 1011.97 1011.72 1011.43 1011.10 1010.70
1011.68 1012.15 1012.57 1012.99 1013.41 1013.88 1014.36 1014.85 1015.31 1015.69 1015.97 1016.10 1016.08 1015.91 1015.63 1015.26 1014.86 1014.48 1014.16 1013.94 1013.83 1013.82 1013.90 1014.04 1014.19 1014.32 1014.40 1014.40 1014.32 1014.15 1013.91 1013.62 1013.29 1012.95 1012.62 1012.30 1012.00 1011.71 1011.42 1011.11 1010.78 1010.40 1009.97
1011.96 1012.46 1012.92 1013.37 1013.83 1014.30 1014.78 1015.24 1015.64 1015.96 1016.15 1016.21 1016.11 1015.89 1015.56 1015.16 1014.76 1014.40 1014.11 1013.93 1013.85 1013.89 1014.00 1014.16 1014.33 1014.47 1014.54 1014.52 1014.41 1014.21 1013.92 1013.57 1013.18 1012.78 1012.37 1011.98 1011.61 1011.25 1010.89 1010.53 1010.16 1009.75 1009.29
1012.25 1012.77 1013.25 1013.72 1014.18 1014.64 1015.09 1015.50 1015.84 1016.08 1016.20 1016.18 1016.03 1015.76 1015.42 1015.03 1014.66 1014.33 1014.10 1013.97 1013.96 1014.04 1014.19 1014.38 1014.56 1014.69 1014.75 1014.72 1014.58 1014.34 1014.01 1013.60 1013.16 1012.69 1012.21 1011.74 1011.30 1010.87 1010.46 1010.05 1009.64 1009.20 1008.74
1012.51 1013.04 1013.53 1014.00 1014.45 1014.88 1015.28 1015.62 1015.89 1016.06 1016.11 1016.03 1015.85 1015.57 1015.23 1014.88 1014.56 1014.30 1014.13 1014.07 1014.11 1014.24 1014.42 1014.62 1014.80 1014.93 1014.98 1014.92 1014.76 1014.48 1014.12 1013.68 1013.18 1012.66 1012.13 1011.61 1011.10 1010.62 1010.16 1009.72 1009.29 1008.84 1008.37
1012.73 1013.25 1013.73 1014.18 1014.60 1014.99 1015.34 1015.62 1015.81 1015.91 1015.91 1015.80 1015.60 1015.34 1015.04 1014.74 1014.48 1014.30 1014.20 1014.20 1014.28 1014.43 1014.63 1014.83 1015.00 1015.11 1015.14 1015.06 1014.87 1014.58 1014.20 1013.74 1013.23 1012.69 1012.13 1011.58 1011.05 1010.54 1010.06 1009.60 1009.15 1008.70 1008.23
Thickness
5822 5820 5816 5812 5806 5800 5795 5791 5788 5786 5784 5781 5778 5776 5774 5776 5776 5776 5774 5773 5772 5771 5770 5770 5768 5767 5765 5763 5762 5760 5757 5755 5756 5752 5748 5750 5754 5754 5754 5754 5753 5752 5751
5822 5819 5816 5813 5807 5801 5797 5793 5789 5787 5785 5783 5782 5780 5778 5777 5777 5777 5775 5774 5773 5772 5771 5769 5768 5767 5765 5763 5762 5760 5756 5755 5757 5751 5745 5740 5742 5748 5753 5751 5750 5750 5750
5824 5820 5817 5814 5810 5804 5800 5796 5792 5790 5788 5787 5784 5782 5779 5777 5776 5775 5774 5775 5774 5773 5771 5770 5769 5768 5766 5763 5762 5761 5757 5753 5755 5756 5749 5740 5736 5740 5746 5749 5750 5749 5749
5832 5825 5820 5816 5813 5809 5805 5801 5796 5793 5790 5789 5786 5781 5776 5773 5774 5775 5775 5775 5774 5773 5771 5770 5769 5767 5766 5764 5763 5762 5760 5756 5752 5754 5755 5753 5749 5740 5737 5743 5747 5748 5748
5838 5830 5826 5821 5819 5816 5810 5804 5798 5794 5793 5791 5788 5784 5780 5778 5778 5777 5776 5774 5774 5773 5772 5770 5769 5767 5766 5764 5763 5762 5760 5758 5754 5753 5753 5752 5750 5748 5740 5735 5739 5743 5746
5842 5836 5832 5827 5823 5820 5814 5808 5801 5796 5794 5792 5790 5786 5783 5781 5778 5776 5774 5773 5773 5773 5772 5771 5769 5767 5766 5764 5763 5762 5760 5758 5756 5754 5754 5751 5748 5745 5743 5738 5737 5738 5742
5843 5837 5832 5827 5823 5820 5816 5811 5803 5798 5796 5793 5791 5788 5786 5783 5780 5777 5776 5774 5774 5772 5772 5771 5768 5767 5765 5764 5763 5761 5759 5758 5756 5754 5753 5753 5752 5751 5748 5742 5738 5738 5741
5846 5839 5835 5831 5826 5822 5818 5813 5806 5800 5797 5794 5792 5790 5788 5785 5783 5781 5780 5777 5776 5775 5774 5771 5768 5767 5765 5764 5763 5760 5759 5758 5756 5755 5753 5752 5752 5752 5750 5745 5740 5734 5735
5847 5843 5839 5834 5828 5824 5820 5815 5808 5802 5799 5796 5793 5790 5788 5786 5784 5783 5781 5779 5778 5777 5774 5771 5769 5767 5765 5763 5761 5758 5757 5756 5754 5753 5752 5751 5751 5751 5751 5749 5745 5736 5729
5845 5842 5839 5835 5831 5826 5822 5817 5811 5805 5801 5798 5795 5791 5789 5786 5785 5783 5780 5778 5777 5776 5773 5770 5768 5766 5764 5762 5759 5757 5757 5755 5753 5752 5750 5749 5749 5750 5749 5748 5746 5743 5736
5841 5840 5836 5835 5831 5826 5821 5816 5811 5806 5801 5798 5795 5792 5789 5786 5784 5781 5780 5778 5776 5774 5772 5770 5767 5765 5763 5761 5758 5757 5755 5753 5752 5751 5749 5747 5747 5746 5746 5746 5744 5742 5738
5840 5837 5834 5832 5828 5824 5819 5815 5811 5806 5802 5799 5795 5791 5788 5785 5782 5780 5779 5777 5774 5772 5770 5768 5765 5763 5761 5759 5757 5755 5754 5751 5749 5748 5747 5745 5745 5744 5743 5741 5740 5739 5738
5835 5834 5832 5827 5823 5820 5817 5814 5811 5807 5803 5799 5794 5790 5786 5783 5780 5778 5777 5775 5772 5770 5768 5765 5762 5760 5759 5757 5755 5753 5752 5750 5748 5747 5744 5743 5741 5739 5739 5738 5736 5735 5735
5829 5828 5825 5822 5819 5816 5813 5811 5808 5807 5803 5798 5793 5788 5784 5781 5779 5777 5774 5771 5769 5766 5764 5762 5760 5758 5757 5755 5753 5751 5750 5748 5747 5746 5743 5741 5739 5737 5736 5734 5733 5731 5729
5819 5818 5817 5815 5813 5810 5808 5806 5804 5803 5800 5795 5790 5786 5783 5780 5777 5774 5771 5768 5765 5764 5762 5760 5757 5756 5754 5752 5749 5748 5747 5745 5744 5743 5741 5740 5738 5736 5733 5731 5729 5727 5723
5810 5810 5810 5808 5806 5805 5803 5801 5799 5797 5795 5790 5786 5783 5780 5776 5773 5770 5768 5765 5762 5760 5759 5756 5754 5751 5751 5749 5747 5744 5742 5740 5738 5737 5736 5735 5734 5731 5729 5727 5724 5722 5719
5803 5801 5801 5800 5800 5800 5799 5796 5794 5792 5788 5783 5781 5778 5775 5772 5768 5767 5763 5760 5758 5757 5754 5752 5750 5748 5746 5744 5741 5739 5737 5735 5733 5731 5729 5729 5730 5726 5724 5722 5720 5718 5716
5795 5795 5795 5794 5795 5795 5794 5791 5789 5786 5782 5778 5775 5772 5769 5766 5764 5761 5758 5756 5754 5752 5750 5748 5746 5744 5741 5738 5735 5733 5733 5731 5729 5727 5725 5722 5721 5720 5718 5716 5714 5713 5711
5789 5789 5790 5789 5787 5786 5786 5783 5781 5778 5775 5772 5769 5767 5765 5761 5758 5755 5754 5752 5750 5747 5745 5743 5741 5738 5735 5731 5729 5726 5726 5725 5723 5722 5719 5717 5714 5713 5711 5709 5707 5706 5705
5781 5780 5781 5781 5778 5777 5777 5773 5771 5769 5766 5765 5764 5763 5760 5756 5753 5751 5749 5747 5744 5741 5739 5737 5735 5733 5729 5725 5722 5719 5719 5717 5716 5715 5713 5711 5708 5705 5703 5701 5699 5697 5697
5770 5771 5770 5767 5767 5768 5766 5761 5760 5759 5760 5759 5757 5755 5753 5751 5748 5745 5743 5740 5737 5734 5731 5730 5729 5726 5723 5718 5715 5712 5710 5709 5707 5707 5705 5704 5700 5697 5695 5693 5692 5690 5689
5758 5760 5758 5756 5757 5756 5753 5750 5749 5750 5751 5749 5747 5745 5744 5743 5741 5737 5734 5732 5728 5725 5723 5721 5719 5718 5715 5711 5707 5704 5702 5700 5698 5697 5697 5696 5693 5690 5687 5685 5685 5683 5681
5747 5747 5746 5745 5745 5746 5743 5739 5739 5740 5739 5737 5735 5734 5733 5731 5730 5727 5724 5722 5719 5717 5715 5713 5710 5708 5707 5703 5699 5696 5693 5691 5689 5689 5688 5686 5683 5682 5680 5678 5676 5674 5673
5735 5735 5734 5733 5732 5734 5733 5731 5730 5730 5728 5726 5724 5723 5722 5720 5719 5717 5714 5711 5708 5706 5705 5704 5701 5699 5696 5693 5690 5687 5684 5682 5680 5679 5677 5676 5675 5673 5672 5671 5668 5667 5665
5724 5723 5721 5720 5721 5721 5721 5721 5721 5720 5717 5715 5714 5713 5712 5711 5709 5707 5703 5702 5699 5696 5693 5694 5693 5689 5685 5682 5678 5677 5675 5673 5671 5667 5666 5667 5666 5665 5664 5663 5662 5660 5657
5712 5711 5711 5710 5710 5710 5710 5711 5711 5710 5707 5705 5705 5705 5704 5702 5701 5698 5693 5690 5689 5686 5682 5682 5681 5680 5675 5672 5670 5668 5666 5664 5661 5657 5658 5659 5658 5656 5655 5654 5652 5651 5649